Terminal Aerodrome Forecast
Issued by NWS Denver/Boulder, CO

Home | Current Version | Previous Version | Text Only | Print | Product List | Glossary On
Versions: 1 2 3 4 5 6 7 8 9 10 11 12 13 14 15 16 17 18 19 20 21 22 23 24 25 26 27 28 29 30 31 32 33 34 35 36 37 38 39 40 41 42 43 44 45 46 47 48 49 50
000
FTUS45 KBOU 182339
TAFDEN
TAF
KDEN 182339Z 1900/2006 03007KT P6SM FEW110 FEW200
     FM190300 14007KT P6SM SCT090 SCT200
     FM190700 20007KT P6SM FEW110 FEW200
     FM191400 24006KT P6SM FEW150
     FM191900 15006KT P6SM FEW150 FEW220
     FM200200 18007KT P6SM FEW150 SCT200=

USA.gov is the U.S. government's official web portal to all federal, state and local government web resources and services.